Year,Month,Day,Hour,Minute,Value (Times are PST for temperature in C)
2020,07,12,00,00,13.60
2020,07,12,00,01,13.60
2020,07,12,00,02,13.60
2020,07,12,00,03,13.60
2020,07,12,00,04,13.60
2020,07,12,00,05,13.60
2020,07,12,00,06,13.60
2020,07,12,00,07,13.60
2020,07,12,00,08,13.50
2020,07,12,00,09,13.50
2020,07,12,00,10,13.50
2020,07,12,00,11,13.50
2020,07,12,00,12,13.50
2020,07,12,00,13,13.50
2020,07,12,00,14,13.50
2020,07,12,00,15,13.40
2020,07,12,00,16,13.40
2020,07,12,00,17,13.40
2020,07,12,00,18,13.40
2020,07,12,00,19,13.40
2020,07,12,00,20,13.40
2020,07,12,00,21,13.40
2020,07,12,00,22,13.40
2020,07,12,00,23,13.40
2020,07,12,00,24,13.40
2020,07,12,00,25,13.40
2020,07,12,00,26,13.30
2020,07,12,00,27,13.30
2020,07,12,00,28,13.30
2020,07,12,00,29,13.30
2020,07,12,00,30,13.30
2020,07,12,00,31,13.30
2020,07,12,00,32,13.30
2020,07,12,00,33,13.30
2020,07,12,00,34,13.30
2020,07,12,00,35,13.30
2020,07,12,00,36,13.30
2020,07,12,00,37,13.20
2020,07,12,00,38,13.20
2020,07,12,00,39,13.20
2020,07,12,00,40,13.20
2020,07,12,00,41,13.20
2020,07,12,00,42,13.20
2020,07,12,00,43,13.20
2020,07,12,00,44,13.10
2020,07,12,00,45,13.10
2020,07,12,00,46,13.10
2020,07,12,00,47,13.10
2020,07,12,00,48,13.10
2020,07,12,00,49,13.10
2020,07,12,00,50,13.00
2020,07,12,00,51,13.00
2020,07,12,00,52,13.00
2020,07,12,00,53,12.90
2020,07,12,00,54,12.90
2020,07,12,00,55,12.90
2020,07,12,00,56,12.90
2020,07,12,00,57,12.90
2020,07,12,00,58,12.90
2020,07,12,00,59,12.80
2020,07,12,01,00,12.80
2020,07,12,01,01,12.80
2020,07,12,01,02,12.80
2020,07,12,01,03,12.80
2020,07,12,01,04,12.80
2020,07,12,01,05,12.80
2020,07,12,01,06,12.70
2020,07,12,01,07,12.70
2020,07,12,01,08,12.70
2020,07,12,01,09,12.70
2020,07,12,01,10,12.70
2020,07,12,01,11,12.60
2020,07,12,01,12,12.60
2020,07,12,01,13,12.60
2020,07,12,01,14,12.60
2020,07,12,01,15,12.60
2020,07,12,01,16,12.60
2020,07,12,01,17,12.60
2020,07,12,01,18,12.60
2020,07,12,01,19,12.50
2020,07,12,01,20,12.50
2020,07,12,01,21,12.50
2020,07,12,01,22,12.50
2020,07,12,01,23,12.40
2020,07,12,01,24,12.40
2020,07,12,01,25,12.40
2020,07,12,01,26,12.40
2020,07,12,01,27,12.30
2020,07,12,01,28,12.30
2020,07,12,01,29,12.30
2020,07,12,01,30,12.30
2020,07,12,01,31,12.30
2020,07,12,01,32,12.30
2020,07,12,01,33,12.30
2020,07,12,01,34,12.30
2020,07,12,01,35,12.30
2020,07,12,01,36,12.30
2020,07,12,01,37,12.30
2020,07,12,01,38,12.30
2020,07,12,01,39,12.30
2020,07,12,01,40,12.30
2020,07,12,01,41,12.30
2020,07,12,01,42,12.30
2020,07,12,01,43,12.30
2020,07,12,01,44,12.30
2020,07,12,01,45,12.30
2020,07,12,01,46,12.30
2020,07,12,01,47,12.30
2020,07,12,01,48,12.30
2020,07,12,01,49,12.30
2020,07,12,01,50,12.30
2020,07,12,01,51,12.20
2020,07,12,01,52,12.20
2020,07,12,01,53,12.20
2020,07,12,01,54,12.20
2020,07,12,01,55,12.20
2020,07,12,01,56,12.20
2020,07,12,01,57,12.20
2020,07,12,01,58,12.20
2020,07,12,01,59,12.20
2020,07,12,02,00,12.10
2020,07,12,02,01,12.10
2020,07,12,02,02,12.10
2020,07,12,02,03,12.10
2020,07,12,02,04,12.10
2020,07,12,02,05,12.10
2020,07,12,02,06,12.10
2020,07,12,02,07,12.10
2020,07,12,02,08,12.10
2020,07,12,02,09,12.10
2020,07,12,02,10,12.10
2020,07,12,02,11,12.10
2020,07,12,02,12,12.10
2020,07,12,02,13,12.10
2020,07,12,02,14,12.10
2020,07,12,02,15,12.10
2020,07,12,02,16,12.10
2020,07,12,02,17,12.10
2020,07,12,02,18,12.00
2020,07,12,02,19,12.00
2020,07,12,02,20,12.00
2020,07,12,02,21,12.00
2020,07,12,02,22,12.00
2020,07,12,02,23,12.00
2020,07,12,02,24,11.90
2020,07,12,02,25,11.90
2020,07,12,02,26,11.90
2020,07,12,02,27,11.90
2020,07,12,02,28,11.90
2020,07,12,02,29,11.90
2020,07,12,02,30,11.80
2020,07,12,02,31,11.80
2020,07,12,02,32,11.80
2020,07,12,02,33,11.80
2020,07,12,02,34,11.80
2020,07,12,02,35,11.80
2020,07,12,02,36,11.80
2020,07,12,02,37,11.80
2020,07,12,02,38,11.80
2020,07,12,02,39,11.80
2020,07,12,02,40,11.80
2020,07,12,02,41,11.70
2020,07,12,02,42,11.70
2020,07,12,02,43,11.70
2020,07,12,02,44,11.70
2020,07,12,02,45,11.70
2020,07,12,02,46,11.70
2020,07,12,02,47,11.60
2020,07,12,02,48,11.60
2020,07,12,02,49,11.60
2020,07,12,02,50,11.60
2020,07,12,02,51,11.50
2020,07,12,02,52,11.50
2020,07,12,02,53,11.50
2020,07,12,02,54,11.40
2020,07,12,02,55,11.40
2020,07,12,02,56,11.40
2020,07,12,02,57,11.30
2020,07,12,02,58,11.30
2020,07,12,02,59,11.30
2020,07,12,03,00,11.30
2020,07,12,03,01,11.20
2020,07,12,03,02,11.20
2020,07,12,03,03,11.20
2020,07,12,03,04,11.20
2020,07,12,03,05,11.10
2020,07,12,03,06,11.10
2020,07,12,03,07,11.00
2020,07,12,03,08,11.00
2020,07,12,03,09,11.00
2020,07,12,03,10,11.00
2020,07,12,03,11,10.90
2020,07,12,03,12,10.90
2020,07,12,03,13,10.90
2020,07,12,03,14,10.90
2020,07,12,03,15,10.90
2020,07,12,03,16,10.90
2020,07,12,03,17,10.90
2020,07,12,03,18,10.80
2020,07,12,03,19,10.80
2020,07,12,03,20,10.80
2020,07,12,03,21,10.80
2020,07,12,03,22,10.70
2020,07,12,03,23,10.70
2020,07,12,03,24,10.70
2020,07,12,03,25,10.60
2020,07,12,03,26,10.60
2020,07,12,03,27,10.60
2020,07,12,03,28,10.60
2020,07,12,03,29,10.50
2020,07,12,03,30,10.50
2020,07,12,03,31,10.60
2020,07,12,03,32,10.50
2020,07,12,03,33,10.60
2020,07,12,03,34,10.60
2020,07,12,03,35,10.60
2020,07,12,03,36,10.60
2020,07,12,03,37,10.60
2020,07,12,03,38,10.60
2020,07,12,03,39,10.60
2020,07,12,03,40,10.60
2020,07,12,03,41,10.60
2020,07,12,03,42,10.60
2020,07,12,03,43,10.60
2020,07,12,03,44,10.60
2020,07,12,03,45,10.60
2020,07,12,03,46,10.60
2020,07,12,03,47,10.60
2020,07,12,03,48,10.60
2020,07,12,03,49,10.70
2020,07,12,03,50,10.70
2020,07,12,03,51,10.70
2020,07,12,03,52,10.70
2020,07,12,03,53,10.70
2020,07,12,03,54,10.70
2020,07,12,03,55,10.70
2020,07,12,03,56,10.70
2020,07,12,03,57,10.70
2020,07,12,03,58,10.70
2020,07,12,03,59,10.80
2020,07,12,04,00,10.80
2020,07,12,04,01,10.80
2020,07,12,04,02,10.80
2020,07,12,04,03,10.80
2020,07,12,04,04,10.80
2020,07,12,04,05,10.80
2020,07,12,04,06,10.80
2020,07,12,04,07,10.80
2020,07,12,04,08,10.80
2020,07,12,04,09,10.80
2020,07,12,04,10,10.80
2020,07,12,04,11,10.90
2020,07,12,04,12,10.90
2020,07,12,04,13,10.90
2020,07,12,04,14,10.90
2020,07,12,04,15,10.90
2020,07,12,04,16,10.90
2020,07,12,04,17,10.90
2020,07,12,04,18,10.90
2020,07,12,04,19,10.90
2020,07,12,04,20,10.90
2020,07,12,04,21,10.90
2020,07,12,04,22,10.90
2020,07,12,04,23,10.90
2020,07,12,04,24,10.90
2020,07,12,04,25,10.90
2020,07,12,04,26,10.90
2020,07,12,04,27,10.90
2020,07,12,04,28,11.00
2020,07,12,04,29,11.00
2020,07,12,04,30,11.00
2020,07,12,04,31,11.00
2020,07,12,04,32,10.90
2020,07,12,04,33,11.00
2020,07,12,04,34,11.00
2020,07,12,04,35,11.00
2020,07,12,04,36,11.00
2020,07,12,04,37,11.00
2020,07,12,04,38,11.00
2020,07,12,04,39,11.10
2020,07,12,04,40,11.10
2020,07,12,04,41,11.10
2020,07,12,04,42,11.10
2020,07,12,04,43,11.10
2020,07,12,04,44,11.10
2020,07,12,04,45,11.10
2020,07,12,04,46,11.10
2020,07,12,04,47,11.20
2020,07,12,04,48,11.20
2020,07,12,04,49,11.20
2020,07,12,04,50,11.20
2020,07,12,04,51,11.20
2020,07,12,04,52,11.20
2020,07,12,04,53,11.20
2020,07,12,04,54,11.20
2020,07,12,04,55,11.20
2020,07,12,04,56,11.20
2020,07,12,04,57,11.20
2020,07,12,04,58,11.20
2020,07,12,04,59,11.20
2020,07,12,05,00,11.20
2020,07,12,05,01,11.20
2020,07,12,05,02,11.20
2020,07,12,05,03,11.30
2020,07,12,05,04,11.30
2020,07,12,05,05,11.30
2020,07,12,05,06,11.30
2020,07,12,05,07,11.30
2020,07,12,05,08,11.30
2020,07,12,05,09,11.30
2020,07,12,05,10,11.30
2020,07,12,05,11,11.30
2020,07,12,05,12,11.30
2020,07,12,05,13,11.30
2020,07,12,05,14,11.30
2020,07,12,05,15,11.30
2020,07,12,05,16,11.30
2020,07,12,05,17,11.30
2020,07,12,05,18,11.30
2020,07,12,05,19,11.30
2020,07,12,05,20,11.30
2020,07,12,05,21,11.30
2020,07,12,05,22,11.30
2020,07,12,05,23,11.30
2020,07,12,05,24,11.20
2020,07,12,05,25,11.20
2020,07,12,05,26,11.20
2020,07,12,05,27,11.20
2020,07,12,05,28,11.20
2020,07,12,05,29,11.20
2020,07,12,05,30,11.20
2020,07,12,05,31,11.20
2020,07,12,05,32,11.20
2020,07,12,05,33,11.20
2020,07,12,05,34,11.20
2020,07,12,05,35,11.20
2020,07,12,05,36,11.20
2020,07,12,05,37,11.20
2020,07,12,05,38,11.20
2020,07,12,05,39,11.20
2020,07,12,05,40,11.20
2020,07,12,05,41,11.20
2020,07,12,05,42,11.20
2020,07,12,05,43,11.20
2020,07,12,05,44,11.20
2020,07,12,05,45,11.20
2020,07,12,05,46,11.20
2020,07,12,05,47,11.20
2020,07,12,05,48,11.20
2020,07,12,05,49,11.20
2020,07,12,05,50,11.20
2020,07,12,05,51,11.20
2020,07,12,05,52,11.20
2020,07,12,05,53,11.20
2020,07,12,05,54,11.20
2020,07,12,05,55,11.20
2020,07,12,05,56,11.20
2020,07,12,05,57,11.20
2020,07,12,05,58,11.20
2020,07,12,05,59,11.20
2020,07,12,06,00,11.20
2020,07,12,06,01,11.20
2020,07,12,06,02,11.20
2020,07,12,06,03,11.20
2020,07,12,06,04,11.20
2020,07,12,06,05,11.20
2020,07,12,06,06,11.20
2020,07,12,06,07,11.20
2020,07,12,06,08,11.20
2020,07,12,06,09,11.20
2020,07,12,06,10,11.30
2020,07,12,06,11,11.30
2020,07,12,06,12,11.20
2020,07,12,06,13,11.20
2020,07,12,06,14,11.30
2020,07,12,06,15,11.30
2020,07,12,06,16,11.30
2020,07,12,06,17,11.30
2020,07,12,06,18,11.30
2020,07,12,06,19,11.30
2020,07,12,06,20,11.30
2020,07,12,06,21,11.30
2020,07,12,06,22,11.30
2020,07,12,06,23,11.30
2020,07,12,06,24,11.30
2020,07,12,06,25,11.30
2020,07,12,06,26,11.30
2020,07,12,06,27,11.30
2020,07,12,06,28,11.30
2020,07,12,06,29,11.30
2020,07,12,06,30,11.30
2020,07,12,06,31,11.30
2020,07,12,06,32,11.30
2020,07,12,06,33,11.30
2020,07,12,06,34,11.30
2020,07,12,06,35,11.30
2020,07,12,06,36,11.30
2020,07,12,06,37,11.30
2020,07,12,06,38,11.30
2020,07,12,06,39,11.40
2020,07,12,06,40,11.40
2020,07,12,06,41,11.40
2020,07,12,06,42,11.40
2020,07,12,06,43,11.40
2020,07,12,06,44,11.40
2020,07,12,06,45,11.40
2020,07,12,06,46,11.40
2020,07,12,06,47,11.40
2020,07,12,06,48,11.40
2020,07,12,06,49,11.40
2020,07,12,06,50,11.40
2020,07,12,06,51,11.40
2020,07,12,06,52,11.40
2020,07,12,06,53,11.40
2020,07,12,06,54,11.40
2020,07,12,06,55,11.40
2020,07,12,06,56,11.40
2020,07,12,06,57,11.40
2020,07,12,06,58,11.40
2020,07,12,06,59,11.40
2020,07,12,07,00,11.50
2020,07,12,07,01,11.50
2020,07,12,07,02,11.50
2020,07,12,07,03,11.50
2020,07,12,07,04,11.60
2020,07,12,07,05,11.60
2020,07,12,07,06,11.60
2020,07,12,07,07,11.60
2020,07,12,07,08,11.60
2020,07,12,07,09,11.60
2020,07,12,07,10,11.70
2020,07,12,07,11,11.60
2020,07,12,07,12,11.70
2020,07,12,07,13,11.70
2020,07,12,07,14,11.70
2020,07,12,07,15,11.70
2020,07,12,07,16,11.70
2020,07,12,07,17,11.70
2020,07,12,07,18,11.70
2020,07,12,07,19,11.70
2020,07,12,07,20,11.70
2020,07,12,07,21,11.70
2020,07,12,07,22,11.70
2020,07,12,07,23,11.70
2020,07,12,07,24,11.70
2020,07,12,07,25,11.70
2020,07,12,07,26,11.70
2020,07,12,07,27,11.70
2020,07,12,07,28,11.70
2020,07,12,07,29,11.70
2020,07,12,07,30,11.70
2020,07,12,07,31,11.70
2020,07,12,07,32,11.70
2020,07,12,07,33,11.80
2020,07,12,07,34,11.80
2020,07,12,07,35,11.80
2020,07,12,07,36,11.80
2020,07,12,07,37,11.80
2020,07,12,07,38,11.80
2020,07,12,07,39,11.80
2020,07,12,07,40,11.80
2020,07,12,07,41,11.90
2020,07,12,07,42,11.90
2020,07,12,07,43,11.90
2020,07,12,07,44,12.00
2020,07,12,07,45,12.00
2020,07,12,07,46,12.10
2020,07,12,07,47,12.10
2020,07,12,07,48,12.20
2020,07,12,07,49,12.20
2020,07,12,07,50,12.20
2020,07,12,07,51,12.30
2020,07,12,07,52,12.30
2020,07,12,07,53,12.40
2020,07,12,07,54,12.40
2020,07,12,07,55,12.50
2020,07,12,07,56,12.50
2020,07,12,07,57,12.60
2020,07,12,07,58,12.60
2020,07,12,07,59,12.70
2020,07,12,08,00,12.70
2020,07,12,08,01,12.70
2020,07,12,08,02,12.80
2020,07,12,08,03,12.80
2020,07,12,08,04,12.80
2020,07,12,08,05,12.90
2020,07,12,08,06,12.90
2020,07,12,08,07,12.90
2020,07,12,08,08,13.00
2020,07,12,08,09,13.00
2020,07,12,08,10,13.00
2020,07,12,08,11,13.00
2020,07,12,08,12,13.00
2020,07,12,08,13,13.10
2020,07,12,08,14,13.10
2020,07,12,08,15,13.10
2020,07,12,08,16,13.10
2020,07,12,08,17,13.10
2020,07,12,08,18,13.20
2020,07,12,08,19,13.20
2020,07,12,08,20,13.20
2020,07,12,08,21,13.20
2020,07,12,08,22,13.20
2020,07,12,08,23,13.30
2020,07,12,08,24,13.30
2020,07,12,08,25,13.30
2020,07,12,08,26,13.30
2020,07,12,08,27,13.40
2020,07,12,08,28,13.40
2020,07,12,08,29,13.40
2020,07,12,08,30,13.40
2020,07,12,08,31,13.40
2020,07,12,08,32,13.40
2020,07,12,08,33,13.40
2020,07,12,08,34,13.40
2020,07,12,08,35,13.30
2020,07,12,08,36,13.30
2020,07,12,08,37,13.30
2020,07,12,08,38,13.30
2020,07,12,08,39,13.30
2020,07,12,08,40,13.30
2020,07,12,08,41,13.30
2020,07,12,08,42,13.30
2020,07,12,08,43,13.30
2020,07,12,08,44,13.30
2020,07,12,08,45,13.30
2020,07,12,08,46,13.30
2020,07,12,08,47,13.30
2020,07,12,08,48,13.40
2020,07,12,08,49,13.40
2020,07,12,08,50,13.50
2020,07,12,08,51,13.60
2020,07,12,08,52,13.70
2020,07,12,08,53,13.70
2020,07,12,08,54,13.80
2020,07,12,08,55,13.90
2020,07,12,08,56,13.90
2020,07,12,08,57,14.00
2020,07,12,08,58,14.10
2020,07,12,08,59,14.10
2020,07,12,09,00,14.20
2020,07,12,09,01,14.30
2020,07,12,09,02,14.30
2020,07,12,09,03,14.40
2020,07,12,09,04,14.40
2020,07,12,09,05,14.40
2020,07,12,09,06,14.40
2020,07,12,09,07,14.50
2020,07,12,09,08,14.50
2020,07,12,09,09,14.60
2020,07,12,09,10,14.60
2020,07,12,09,11,14.60
2020,07,12,09,12,14.70
2020,07,12,09,13,14.70
2020,07,12,09,14,14.70
2020,07,12,09,15,14.70
2020,07,12,09,16,14.80
2020,07,12,09,17,14.80
2020,07,12,09,18,14.80
2020,07,12,09,19,14.70
2020,07,12,09,20,14.70
2020,07,12,09,21,14.70
2020,07,12,09,22,14.70
2020,07,12,09,23,14.70
2020,07,12,09,24,14.70
2020,07,12,09,25,14.70
2020,07,12,09,26,14.80
2020,07,12,09,27,14.80
2020,07,12,09,28,14.90
2020,07,12,09,29,14.90
2020,07,12,09,30,14.90
2020,07,12,09,31,14.90
2020,07,12,09,32,14.80
2020,07,12,09,33,14.80
2020,07,12,09,34,14.80
2020,07,12,09,35,14.80
2020,07,12,09,36,14.80
2020,07,12,09,37,14.70
2020,07,12,09,38,14.70
2020,07,12,09,39,14.70
2020,07,12,09,40,14.70
2020,07,12,09,41,14.70
2020,07,12,09,42,14.70
2020,07,12,09,43,14.70
2020,07,12,09,44,14.70
2020,07,12,09,45,14.70
2020,07,12,09,46,14.80
2020,07,12,09,47,14.80
2020,07,12,09,48,14.80
2020,07,12,09,49,14.80
2020,07,12,09,50,14.90
2020,07,12,09,51,14.90
2020,07,12,09,52,14.90
2020,07,12,09,53,14.80
2020,07,12,09,54,14.80
2020,07,12,09,55,14.80
2020,07,12,09,56,14.70
2020,07,12,09,57,14.70
2020,07,12,09,58,14.60
2020,07,12,09,59,14.60
2020,07,12,10,00,14.60
2020,07,12,10,01,14.60
2020,07,12,10,02,14.60
2020,07,12,10,03,14.60
2020,07,12,10,04,14.60
2020,07,12,10,05,14.60
2020,07,12,10,06,14.70
2020,07,12,10,07,14.70
2020,07,12,10,08,14.70
2020,07,12,10,09,14.70
2020,07,12,10,10,14.70
2020,07,12,10,11,14.70
2020,07,12,10,12,14.80
2020,07,12,10,13,14.90
2020,07,12,10,14,15.00
2020,07,12,10,15,15.00
2020,07,12,10,16,15.00
2020,07,12,10,17,15.10
2020,07,12,10,18,15.20
2020,07,12,10,19,15.30
2020,07,12,10,20,15.40
2020,07,12,10,21,15.50
2020,07,12,10,22,15.60
2020,07,12,10,23,15.60
2020,07,12,10,24,15.70
2020,07,12,10,25,15.80
2020,07,12,10,26,15.80
2020,07,12,10,27,15.90
2020,07,12,10,28,16.00
2020,07,12,10,29,16.10
2020,07,12,10,30,16.20
2020,07,12,10,31,16.20
2020,07,12,10,32,16.20
2020,07,12,10,33,16.30
2020,07,12,10,34,16.30
2020,07,12,10,35,16.20
2020,07,12,10,36,16.20
2020,07,12,10,37,16.10
2020,07,12,10,38,16.20
2020,07,12,10,39,16.20
2020,07,12,10,40,16.30
2020,07,12,10,41,16.30
2020,07,12,10,42,16.30
2020,07,12,10,43,16.30
2020,07,12,10,44,16.40
2020,07,12,10,45,16.40
2020,07,12,10,46,16.50
2020,07,12,10,47,16.50
2020,07,12,10,48,16.60
2020,07,12,10,49,16.60
2020,07,12,10,50,16.70
2020,07,12,10,51,16.70
2020,07,12,10,52,16.80
2020,07,12,10,53,16.90
2020,07,12,10,54,17.00
2020,07,12,10,55,17.10
2020,07,12,10,56,17.20
2020,07,12,10,57,17.20
2020,07,12,10,58,17.30
2020,07,12,10,59,17.30
2020,07,12,11,00,17.40
2020,07,12,11,01,17.40
2020,07,12,11,02,17.30
2020,07,12,11,03,17.30
2020,07,12,11,04,17.30
2020,07,12,11,05,17.20
2020,07,12,11,06,17.20
2020,07,12,11,07,17.20
2020,07,12,11,08,17.20
2020,07,12,11,09,17.30
2020,07,12,11,10,17.30
2020,07,12,11,11,17.30
2020,07,12,11,12,17.20
2020,07,12,11,13,17.20
2020,07,12,11,14,17.20
2020,07,12,11,15,17.30
2020,07,12,11,16,17.40
2020,07,12,11,17,17.50
2020,07,12,11,18,17.60
2020,07,12,11,19,17.60
2020,07,12,11,20,17.70
2020,07,12,11,21,17.70
2020,07,12,11,22,17.70
2020,07,12,11,23,17.70
2020,07,12,11,24,17.60
2020,07,12,11,25,17.60
2020,07,12,11,26,17.60
2020,07,12,11,27,17.50
2020,07,12,11,28,17.40
2020,07,12,11,29,17.40
2020,07,12,11,30,17.30
2020,07,12,11,31,17.30
2020,07,12,11,32,17.20
2020,07,12,11,33,17.20
2020,07,12,11,34,17.20
2020,07,12,11,35,17.20
2020,07,12,11,36,17.30
2020,07,12,11,37,17.30
2020,07,12,11,38,17.30
2020,07,12,11,39,17.30
2020,07,12,11,40,17.40
2020,07,12,11,41,17.50
2020,07,12,11,42,17.60
2020,07,12,11,43,17.70
2020,07,12,11,44,17.80
2020,07,12,11,45,17.90
2020,07,12,11,46,18.00
2020,07,12,11,47,18.10
2020,07,12,11,48,18.20
2020,07,12,11,49,18.20
2020,07,12,11,50,18.20
2020,07,12,11,51,18.30
2020,07,12,11,52,18.40
2020,07,12,11,53,18.50
2020,07,12,11,54,18.60
2020,07,12,11,55,18.70
2020,07,12,11,56,18.80
2020,07,12,11,57,18.90
2020,07,12,11,58,18.90
2020,07,12,11,59,18.90
2020,07,12,12,00,18.90
2020,07,12,12,01,18.90
2020,07,12,12,02,19.00
2020,07,12,12,03,19.00
2020,07,12,12,04,19.00
2020,07,12,12,05,19.00
2020,07,12,12,06,18.80
2020,07,12,12,07,18.70
2020,07,12,12,08,18.70
2020,07,12,12,09,18.70
2020,07,12,12,10,18.70
2020,07,12,12,11,18.60
2020,07,12,12,12,18.60
2020,07,12,12,13,18.60
2020,07,12,12,14,18.60
2020,07,12,12,15,18.70
2020,07,12,12,16,18.80
2020,07,12,12,17,18.80
2020,07,12,12,18,18.90
2020,07,12,12,19,19.00
2020,07,12,12,20,19.00
2020,07,12,12,21,18.90
2020,07,12,12,22,18.70
2020,07,12,12,23,18.60
2020,07,12,12,24,18.50
2020,07,12,12,25,18.50
2020,07,12,12,26,18.40
2020,07,12,12,27,18.40
2020,07,12,12,28,18.40
2020,07,12,12,29,18.40
2020,07,12,12,30,18.50
2020,07,12,12,31,18.60
2020,07,12,12,32,18.60
2020,07,12,12,33,18.70
2020,07,12,12,34,18.70
2020,07,12,12,35,18.80
2020,07,12,12,36,18.90
2020,07,12,12,37,18.90
2020,07,12,12,38,18.90
2020,07,12,12,39,18.90
2020,07,12,12,40,18.90
2020,07,12,12,41,18.90
2020,07,12,12,42,19.00
2020,07,12,12,43,19.10
2020,07,12,12,44,19.10
2020,07,12,12,45,19.30
2020,07,12,12,46,19.30
2020,07,12,12,47,19.40
2020,07,12,12,48,19.50
2020,07,12,12,49,19.50
2020,07,12,12,50,19.50
2020,07,12,12,51,19.60
2020,07,12,12,52,19.60
2020,07,12,12,53,19.60
2020,07,12,12,54,19.50
2020,07,12,12,55,19.40
2020,07,12,12,56,19.30
2020,07,12,12,57,19.20
2020,07,12,12,58,19.20
2020,07,12,12,59,19.20
2020,07,12,13,00,19.30
2020,07,12,13,01,19.30
2020,07,12,13,02,19.30
2020,07,12,13,03,19.40
2020,07,12,13,04,19.40
2020,07,12,13,05,19.50
2020,07,12,13,06,19.50
2020,07,12,13,07,19.40
2020,07,12,13,08,19.40
2020,07,12,13,09,19.50
2020,07,12,13,10,19.60
2020,07,12,13,11,19.60
2020,07,12,13,12,19.70
2020,07,12,13,13,19.90
2020,07,12,13,14,20.00
2020,07,12,13,15,20.10
2020,07,12,13,16,20.20
2020,07,12,13,17,20.30
2020,07,12,13,18,20.20
2020,07,12,13,19,20.20
2020,07,12,13,20,20.20
2020,07,12,13,21,20.20
2020,07,12,13,22,20.10
2020,07,12,13,23,20.10
2020,07,12,13,24,20.10
2020,07,12,13,25,20.10
2020,07,12,13,26,20.00
2020,07,12,13,27,19.90
2020,07,12,13,28,19.80
2020,07,12,13,29,19.70
2020,07,12,13,30,19.60
2020,07,12,13,31,19.60
2020,07,12,13,32,19.60
2020,07,12,13,33,19.60
2020,07,12,13,34,19.50
2020,07,12,13,35,19.40
2020,07,12,13,36,19.50
2020,07,12,13,37,19.50
2020,07,12,13,38,19.60
2020,07,12,13,39,19.60
2020,07,12,13,40,19.40
2020,07,12,13,41,19.20
2020,07,12,13,42,19.00
2020,07,12,13,43,18.90
2020,07,12,13,44,18.90
2020,07,12,13,45,18.90
2020,07,12,13,46,18.90
2020,07,12,13,47,18.90
2020,07,12,13,48,19.00
2020,07,12,13,49,19.00
2020,07,12,13,50,19.10
2020,07,12,13,51,19.20
2020,07,12,13,52,19.30
2020,07,12,13,53,19.30
2020,07,12,13,54,19.30
2020,07,12,13,55,19.30
2020,07,12,13,56,19.40
2020,07,12,13,57,19.40
2020,07,12,13,58,19.30
2020,07,12,13,59,19.10
2020,07,12,14,00,19.00
2020,07,12,14,01,18.90
2020,07,12,14,02,19.00
2020,07,12,14,03,19.10
2020,07,12,14,04,19.20
2020,07,12,14,05,19.40
2020,07,12,14,06,19.50
2020,07,12,14,07,19.60
2020,07,12,14,08,19.70
2020,07,12,14,09,19.80
2020,07,12,14,10,19.80
2020,07,12,14,11,19.80
2020,07,12,14,12,19.80
2020,07,12,14,13,19.60
2020,07,12,14,14,19.50
2020,07,12,14,15,19.40
2020,07,12,14,16,19.50
2020,07,12,14,17,19.60
2020,07,12,14,18,19.70
2020,07,12,14,19,19.70
2020,07,12,14,20,19.70
2020,07,12,14,21,19.70
2020,07,12,14,22,19.70
2020,07,12,14,23,19.40
2020,07,12,14,24,19.30
2020,07,12,14,25,19.20
2020,07,12,14,26,19.10
2020,07,12,14,27,19.00
2020,07,12,14,28,19.00
2020,07,12,14,29,18.90
2020,07,12,14,30,18.90
2020,07,12,14,31,19.00
2020,07,12,14,32,19.10
2020,07,12,14,33,19.30
2020,07,12,14,34,19.30
2020,07,12,14,35,19.20
2020,07,12,14,36,19.20
2020,07,12,14,37,19.20
2020,07,12,14,38,19.20
2020,07,12,14,39,19.20
2020,07,12,14,40,19.30
2020,07,12,14,41,19.20
2020,07,12,14,42,19.20
2020,07,12,14,43,19.20
2020,07,12,14,44,19.10
2020,07,12,14,45,19.10
2020,07,12,14,46,19.10
2020,07,12,14,47,19.10
2020,07,12,14,48,19.10
2020,07,12,14,49,19.10
2020,07,12,14,50,19.20
2020,07,12,14,51,19.20
2020,07,12,14,52,19.20
2020,07,12,14,53,19.20
2020,07,12,14,54,19.20
2020,07,12,14,55,19.20
2020,07,12,14,56,19.20
2020,07,12,14,57,19.10
2020,07,12,14,58,19.10
2020,07,12,14,59,19.20
2020,07,12,15,00,19.20
2020,07,12,15,01,19.20
2020,07,12,15,02,19.20
2020,07,12,15,03,19.20
2020,07,12,15,04,19.20
2020,07,12,15,05,19.20
2020,07,12,15,06,19.20
2020,07,12,15,07,19.20
2020,07,12,15,08,19.10
2020,07,12,15,09,19.20
2020,07,12,15,10,19.20
2020,07,12,15,11,19.30
2020,07,12,15,12,19.30
2020,07,12,15,13,19.30
2020,07,12,15,14,19.30
2020,07,12,15,15,19.20
2020,07,12,15,16,19.20
2020,07,12,15,17,19.20
2020,07,12,15,18,19.20
2020,07,12,15,19,19.30
2020,07,12,15,20,19.30
2020,07,12,15,21,19.40
2020,07,12,15,22,19.40
2020,07,12,15,23,19.30
2020,07,12,15,24,19.30
2020,07,12,15,25,19.20
2020,07,12,15,26,19.20
2020,07,12,15,27,19.10
2020,07,12,15,28,19.10
2020,07,12,15,29,19.20
2020,07,12,15,30,19.20
2020,07,12,15,31,19.20
2020,07,12,15,32,19.20
2020,07,12,15,33,19.30
2020,07,12,15,34,19.30
2020,07,12,15,35,19.30
2020,07,12,15,36,19.40
2020,07,12,15,37,19.30
2020,07,12,15,38,19.30
2020,07,12,15,39,19.30
2020,07,12,15,40,19.30
2020,07,12,15,41,19.20
2020,07,12,15,42,19.10
2020,07,12,15,43,19.10
2020,07,12,15,44,19.10
2020,07,12,15,45,19.10
2020,07,12,15,46,19.20
2020,07,12,15,47,19.30
2020,07,12,15,48,19.30
2020,07,12,15,49,19.20
2020,07,12,15,50,19.20
2020,07,12,15,51,19.20
2020,07,12,15,52,19.10
2020,07,12,15,53,19.10
2020,07,12,15,54,19.10
2020,07,12,15,55,19.20
2020,07,12,15,56,19.20
2020,07,12,15,57,19.30
2020,07,12,15,58,19.30
2020,07,12,15,59,19.30
2020,07,12,16,00,19.30
2020,07,12,16,01,19.30
2020,07,12,16,02,19.20
2020,07,12,16,03,19.20
2020,07,12,16,04,19.20
2020,07,12,16,05,19.20
2020,07,12,16,06,19.30
2020,07,12,16,07,19.30
2020,07,12,16,08,19.40
2020,07,12,16,09,19.40
2020,07,12,16,10,19.40
2020,07,12,16,11,19.50
2020,07,12,16,12,19.50
2020,07,12,16,13,19.50
2020,07,12,16,14,19.50
2020,07,12,16,15,19.50
2020,07,12,16,16,19.50
2020,07,12,16,17,19.50
2020,07,12,16,18,19.60
2020,07,12,16,19,19.60
2020,07,12,16,20,19.70
2020,07,12,16,21,19.80
2020,07,12,16,22,19.80
2020,07,12,16,23,19.80
2020,07,12,16,24,19.70
2020,07,12,16,25,19.60
2020,07,12,16,26,19.50
2020,07,12,16,27,19.50
2020,07,12,16,28,19.40
2020,07,12,16,29,19.30
2020,07,12,16,30,19.20
2020,07,12,16,31,19.20
2020,07,12,16,32,19.20
2020,07,12,16,33,19.20
2020,07,12,16,34,19.20
2020,07,12,16,35,19.20
2020,07,12,16,36,19.20
2020,07,12,16,37,19.20
2020,07,12,16,38,19.20
2020,07,12,16,39,19.20
2020,07,12,16,40,19.20
2020,07,12,16,41,19.20
2020,07,12,16,42,19.20
2020,07,12,16,43,19.30
2020,07,12,16,44,19.20
2020,07,12,16,45,19.20
2020,07,12,16,46,19.20
2020,07,12,16,47,19.10
2020,07,12,16,48,19.10
2020,07,12,16,49,19.10
2020,07,12,16,50,19.10
2020,07,12,16,51,19.10
2020,07,12,16,52,19.20
2020,07,12,16,53,19.20
2020,07,12,16,54,19.20
2020,07,12,16,55,19.30
2020,07,12,16,56,19.30
2020,07,12,16,57,19.30
2020,07,12,16,58,19.30
2020,07,12,16,59,19.30
2020,07,12,17,00,19.30
2020,07,12,17,01,19.30
2020,07,12,17,02,19.30
2020,07,12,17,03,19.20
2020,07,12,17,04,19.20
2020,07,12,17,05,19.20
2020,07,12,17,06,19.20
2020,07,12,17,07,19.20
2020,07,12,17,08,19.20
2020,07,12,17,09,19.20
2020,07,12,17,10,19.20
2020,07,12,17,11,19.20
2020,07,12,17,12,19.10
2020,07,12,17,13,19.10
2020,07,12,17,14,19.00
2020,07,12,17,15,19.00
2020,07,12,17,16,19.10
2020,07,12,17,17,19.10
2020,07,12,17,18,19.20
2020,07,12,17,19,19.20